Location: Calvera
(42.3882°N, 0.6137°E)
Time: 14:45:40
(UTC+00:00)

Meteor 2-13 Rocket - Pass Details

Date: 28 October 2020
Orbit: 935 x 959 km, 82.5° (Epoch: 24 November)

Event Time Altitude Azimuth Distance (km) Brightness Sun altitude
Rises 04:35:36 0° 187° (S) 3,623 7.4 -21.0°
Reaches altitude 10° 04:38:05 10° 188° (S) 2,680 6.7 -20.5°
Maximum altitude 04:44:14 86° 277° (W) 963 4.4 -19.4°
Drops below altitude 10° 04:50:25 10° 7° (N) 2,685 6.9 -18.2°
Sets 04:52:54 0° 8° (N) 3,631 7.6 -17.8°
